[Date Prev][Date Next][Thread Prev][Thread Next] - [Date Index][Thread Index][Author Index]

2 Line ISS Keps 10-9



ISS
1 25544U 98067A   06282.31203318  .00018574  00000-0  11656-3 0  8232
2 25544 051.6363 319.5279 0013233 075.8149 027.4861 15.76720193451164
----
Sent via sarex@amsat.org. Opinions expressed are those of the author.
Not an AMSAT member? Join now to support the amateur satellite program!
Subscription settings: http://amsat.org/mailman/listinfo/sarex



AMSAT Top AMSAT Home